Year,Month,Day,Hour,Minute,Value (Times are PST for temperature in C)
2016,08,19,00,00,22.70
2016,08,19,00,01,22.90
2016,08,19,00,02,23.10
2016,08,19,00,03,23.40
2016,08,19,00,04,23.50
2016,08,19,00,05,23.60
2016,08,19,00,06,23.70
2016,08,19,00,07,23.70
2016,08,19,00,08,23.80
2016,08,19,00,09,24.00
2016,08,19,00,10,24.10
2016,08,19,00,11,24.10
2016,08,19,00,12,24.20
2016,08,19,00,13,24.20
2016,08,19,00,14,24.10
2016,08,19,00,15,24.10
2016,08,19,00,16,24.10
2016,08,19,00,17,24.20
2016,08,19,00,18,24.40
2016,08,19,00,19,24.50
2016,08,19,00,20,24.60
2016,08,19,00,21,24.60
2016,08,19,00,22,24.60
2016,08,19,00,23,24.50
2016,08,19,00,24,24.50
2016,08,19,00,25,24.60
2016,08,19,00,26,24.70
2016,08,19,00,27,24.80
2016,08,19,00,28,24.80
2016,08,19,00,29,24.90
2016,08,19,00,30,24.90
2016,08,19,00,31,25.00
2016,08,19,00,32,25.00
2016,08,19,00,33,25.00
2016,08,19,00,34,25.00
2016,08,19,00,35,25.00
2016,08,19,00,36,25.10
2016,08,19,00,37,25.20
2016,08,19,00,38,25.30
2016,08,19,00,39,25.40
2016,08,19,00,40,25.50
2016,08,19,00,41,25.60
2016,08,19,00,42,25.70
2016,08,19,00,43,25.70
2016,08,19,00,44,25.70
2016,08,19,00,45,25.80
2016,08,19,00,46,25.80
2016,08,19,00,47,25.90
2016,08,19,00,48,25.90
2016,08,19,00,49,25.90
2016,08,19,00,50,25.90
2016,08,19,00,51,25.90
2016,08,19,00,52,25.80
2016,08,19,00,53,25.80
2016,08,19,00,54,25.80
2016,08,19,00,55,25.80
2016,08,19,00,56,25.70
2016,08,19,00,57,25.60
2016,08,19,00,58,25.50
2016,08,19,00,59,25.50
2016,08,19,01,00,25.40
2016,08,19,01,01,25.30
2016,08,19,01,02,25.20
2016,08,19,01,03,25.10
2016,08,19,01,04,25.00
2016,08,19,01,05,24.90
2016,08,19,01,06,24.80
2016,08,19,01,07,24.60
2016,08,19,01,08,24.60
2016,08,19,01,09,24.50
2016,08,19,01,10,24.50
2016,08,19,01,11,24.40
2016,08,19,01,12,24.40
2016,08,19,01,13,24.40
2016,08,19,01,14,24.40
2016,08,19,01,15,24.40
2016,08,19,01,16,24.40
2016,08,19,01,17,24.30
2016,08,19,01,18,24.30
2016,08,19,01,19,24.40
2016,08,19,01,20,24.40
2016,08,19,01,21,24.40
2016,08,19,01,22,24.40
2016,08,19,01,23,24.30
2016,08,19,01,24,24.30
2016,08,19,01,25,24.30
2016,08,19,01,26,24.30
2016,08,19,01,27,24.30
2016,08,19,01,28,24.20
2016,08,19,01,29,24.20
2016,08,19,01,30,24.20
2016,08,19,01,31,24.20
2016,08,19,01,32,24.20
2016,08,19,01,33,24.20
2016,08,19,01,34,24.10
2016,08,19,01,35,24.00
2016,08,19,01,36,24.00
2016,08,19,01,37,23.80
2016,08,19,01,38,23.70
2016,08,19,01,39,23.60
2016,08,19,01,40,23.50
2016,08,19,01,41,23.40
2016,08,19,01,42,23.40
2016,08,19,01,43,23.30
2016,08,19,01,44,23.20
2016,08,19,01,45,23.20
2016,08,19,01,46,23.10
2016,08,19,01,47,23.00
2016,08,19,01,48,23.00
2016,08,19,01,49,22.90
2016,08,19,01,50,22.90
2016,08,19,01,51,22.80
2016,08,19,01,52,22.80
2016,08,19,01,53,22.80
2016,08,19,01,54,22.80
2016,08,19,01,55,22.80
2016,08,19,01,56,22.70
2016,08,19,01,57,22.70
2016,08,19,01,58,22.70
2016,08,19,01,59,22.70
2016,08,19,02,00,22.60
2016,08,19,02,01,22.60
2016,08,19,02,02,22.60
2016,08,19,02,03,22.70
2016,08,19,02,04,22.70
2016,08,19,02,05,22.70
2016,08,19,02,06,22.70
2016,08,19,02,07,22.70
2016,08,19,02,08,22.70
2016,08,19,02,09,22.70
2016,08,19,02,10,22.70
2016,08,19,02,11,22.70
2016,08,19,02,12,22.70
2016,08,19,02,13,22.80
2016,08,19,02,14,22.90
2016,08,19,02,15,23.10
2016,08,19,02,16,23.20
2016,08,19,02,17,23.20
2016,08,19,02,18,23.30
2016,08,19,02,19,23.50
2016,08,19,02,20,23.50
2016,08,19,02,21,23.60
2016,08,19,02,22,23.60
2016,08,19,02,23,23.70
2016,08,19,02,24,23.70
2016,08,19,02,25,23.70
2016,08,19,02,26,23.70
2016,08,19,02,27,23.70
2016,08,19,02,28,23.80
2016,08,19,02,29,23.80
2016,08,19,02,30,23.90
2016,08,19,02,31,23.90
2016,08,19,02,32,24.00
2016,08,19,02,33,24.00
2016,08,19,02,34,24.00
2016,08,19,02,35,23.90
2016,08,19,02,36,24.00
2016,08,19,02,37,24.00
2016,08,19,02,38,24.00
2016,08,19,02,39,24.10
2016,08,19,02,40,24.20
2016,08,19,02,41,24.20
2016,08,19,02,42,24.30
2016,08,19,02,43,24.30
2016,08,19,02,44,24.40
2016,08,19,02,45,24.40
2016,08,19,02,46,24.40
2016,08,19,02,47,24.40
2016,08,19,02,48,24.40
2016,08,19,02,49,24.40
2016,08,19,02,50,24.50
2016,08,19,02,51,24.60
2016,08,19,02,52,24.60
2016,08,19,02,53,24.60
2016,08,19,02,54,24.70
2016,08,19,02,55,24.70
2016,08,19,02,56,24.60
2016,08,19,02,57,24.60
2016,08,19,02,58,24.50
2016,08,19,02,59,24.40
2016,08,19,03,00,24.20
2016,08,19,03,01,24.10
2016,08,19,03,02,24.00
2016,08,19,03,03,23.90
2016,08,19,03,04,23.90
2016,08,19,03,05,23.80
2016,08,19,03,06,23.80
2016,08,19,03,07,23.80
2016,08,19,03,08,23.80
2016,08,19,03,09,23.80
2016,08,19,03,10,23.90
2016,08,19,03,11,23.90
2016,08,19,03,12,23.90
2016,08,19,03,13,24.00
2016,08,19,03,14,24.00
2016,08,19,03,15,24.00
2016,08,19,03,16,23.90
2016,08,19,03,17,23.90
2016,08,19,03,18,23.90
2016,08,19,03,19,23.80
2016,08,19,03,20,23.80
2016,08,19,03,21,23.60
2016,08,19,03,22,23.50
2016,08,19,03,23,23.40
2016,08,19,03,24,23.30
2016,08,19,03,25,23.20
2016,08,19,03,26,23.10
2016,08,19,03,27,23.00
2016,08,19,03,28,23.00
2016,08,19,03,29,23.00
2016,08,19,03,30,23.00
2016,08,19,03,31,22.90
2016,08,19,03,32,22.90
2016,08,19,03,33,22.90
2016,08,19,03,34,22.90
2016,08,19,03,35,22.90
2016,08,19,03,36,22.90
2016,08,19,03,37,22.90
2016,08,19,03,38,22.90
2016,08,19,03,39,23.00
2016,08,19,03,40,23.00
2016,08,19,03,41,23.10
2016,08,19,03,42,23.20
2016,08,19,03,43,23.20
2016,08,19,03,44,23.30
2016,08,19,03,45,23.20
2016,08,19,03,46,23.20
2016,08,19,03,47,23.10
2016,08,19,03,48,23.10
2016,08,19,03,49,23.00
2016,08,19,03,50,22.90
2016,08,19,03,51,22.90
2016,08,19,03,52,22.90
2016,08,19,03,53,22.80
2016,08,19,03,54,22.80
2016,08,19,03,55,22.70
2016,08,19,03,56,22.70
2016,08,19,03,57,22.60
2016,08,19,03,58,22.50
2016,08,19,03,59,22.40
2016,08,19,04,00,22.40
2016,08,19,04,01,22.30
2016,08,19,04,02,22.30
2016,08,19,04,03,22.20
2016,08,19,04,04,22.20
2016,08,19,04,05,22.20
2016,08,19,04,06,22.20
2016,08,19,04,07,22.20
2016,08,19,04,08,22.20
2016,08,19,04,09,22.10
2016,08,19,04,10,22.10
2016,08,19,04,11,22.00
2016,08,19,04,12,22.00
2016,08,19,04,13,21.90
2016,08,19,04,14,21.80
2016,08,19,04,15,21.70
2016,08,19,04,16,21.60
2016,08,19,04,17,21.50
2016,08,19,04,18,21.40
2016,08,19,04,19,21.30
2016,08,19,04,20,21.20
2016,08,19,04,21,21.10
2016,08,19,04,22,21.00
2016,08,19,04,23,20.90
2016,08,19,04,24,20.80
2016,08,19,04,25,20.70
2016,08,19,04,26,20.60
2016,08,19,04,27,20.50
2016,08,19,04,28,20.40
2016,08,19,04,29,20.30
2016,08,19,04,30,20.30
2016,08,19,04,31,20.20
2016,08,19,04,32,20.10
2016,08,19,04,33,20.10
2016,08,19,04,34,20.00
2016,08,19,04,35,20.00
2016,08,19,04,36,19.90
2016,08,19,04,37,19.90
2016,08,19,04,38,19.80
2016,08,19,04,39,19.80
2016,08,19,04,40,19.70
2016,08,19,04,41,19.60
2016,08,19,04,42,19.60
2016,08,19,04,43,19.50
2016,08,19,04,44,19.60
2016,08,19,04,45,19.60
2016,08,19,04,46,19.60
2016,08,19,04,47,19.60
2016,08,19,04,48,19.60
2016,08,19,04,49,19.60
2016,08,19,04,50,19.60
2016,08,19,04,51,19.50
2016,08,19,04,52,19.50
2016,08,19,04,53,19.50
2016,08,19,04,54,19.40
2016,08,19,04,55,19.40
2016,08,19,04,56,19.40
2016,08,19,04,57,19.30
2016,08,19,04,58,19.30
2016,08,19,04,59,19.20
2016,08,19,05,00,19.20
2016,08,19,05,01,19.10
2016,08,19,05,02,19.10
2016,08,19,05,03,19.10
2016,08,19,05,04,19.00
2016,08,19,05,05,19.00
2016,08,19,05,06,18.90
2016,08,19,05,07,18.90
2016,08,19,05,08,18.80
2016,08,19,05,09,18.80
2016,08,19,05,10,18.70
2016,08,19,05,11,18.70
2016,08,19,05,12,18.60
2016,08,19,05,13,18.60
2016,08,19,05,14,18.60
2016,08,19,05,15,18.60
2016,08,19,05,16,18.60
2016,08,19,05,17,18.60
2016,08,19,05,18,18.50
2016,08,19,05,19,18.50
2016,08,19,05,20,18.50
2016,08,19,05,21,18.50
2016,08,19,05,22,18.50
2016,08,19,05,23,18.50
2016,08,19,05,24,18.40
2016,08,19,05,25,18.40
2016,08,19,05,26,18.40
2016,08,19,05,27,18.40
2016,08,19,05,28,18.40
2016,08,19,05,29,18.40
2016,08,19,05,30,18.40
2016,08,19,05,31,18.30
2016,08,19,05,32,18.30
2016,08,19,05,33,18.30
2016,08,19,05,34,18.30
2016,08,19,05,35,18.30
2016,08,19,05,36,18.20
2016,08,19,05,37,18.20
2016,08,19,05,38,18.20
2016,08,19,05,39,18.20
2016,08,19,05,40,18.10
2016,08,19,05,41,18.10
2016,08,19,05,42,18.10
2016,08,19,05,43,18.10
2016,08,19,05,44,18.00
2016,08,19,05,45,18.00
2016,08,19,05,46,18.00
2016,08,19,05,47,17.90
2016,08,19,05,48,17.90
2016,08,19,05,49,17.90
2016,08,19,05,50,17.90
2016,08,19,05,51,17.90
2016,08,19,05,52,17.80
2016,08,19,05,53,17.80
2016,08,19,05,54,17.80
2016,08,19,05,55,17.80
2016,08,19,05,56,17.70
2016,08,19,05,57,17.70
2016,08,19,05,58,17.70
2016,08,19,05,59,17.70
2016,08,19,06,00,17.70
2016,08,19,06,01,17.70
2016,08,19,06,02,17.70
2016,08,19,06,03,17.70
2016,08,19,06,04,17.70
2016,08,19,06,05,17.70
2016,08,19,06,06,17.70
2016,08,19,06,07,17.70
2016,08,19,06,08,17.70
2016,08,19,06,09,17.70
2016,08,19,06,10,17.70
2016,08,19,06,11,17.60
2016,08,19,06,12,17.60
2016,08,19,06,13,17.60
2016,08,19,06,14,17.60
2016,08,19,06,15,17.60
2016,08,19,06,16,17.50
2016,08,19,06,17,17.50
2016,08,19,06,18,17.50
2016,08,19,06,19,17.40
2016,08,19,06,20,17.40
2016,08,19,06,21,17.40
2016,08,19,06,22,17.50
2016,08,19,06,23,17.50
2016,08,19,06,24,17.50
2016,08,19,06,25,17.50
2016,08,19,06,26,17.50
2016,08,19,06,27,17.40
2016,08,19,06,28,17.40
2016,08,19,06,29,17.40
2016,08,19,06,30,17.40
2016,08,19,06,31,17.40
2016,08,19,06,32,17.40
2016,08,19,06,33,17.50
2016,08,19,06,34,17.70
2016,08,19,06,35,17.70
2016,08,19,06,36,17.80
2016,08,19,06,37,17.90
2016,08,19,06,38,17.90
2016,08,19,06,39,18.00
2016,08,19,06,40,18.10
2016,08,19,06,41,18.10
2016,08,19,06,42,18.10
2016,08,19,06,43,18.10
2016,08,19,06,44,18.20
2016,08,19,06,45,18.10
2016,08,19,06,46,18.20
2016,08,19,06,47,18.20
2016,08,19,06,48,18.30
2016,08,19,06,49,18.40
2016,08,19,06,50,18.50
2016,08,19,06,51,18.60
2016,08,19,06,52,18.60
2016,08,19,06,53,18.60
2016,08,19,06,54,18.60
2016,08,19,06,55,18.60
2016,08,19,06,56,18.60
2016,08,19,06,57,18.60
2016,08,19,06,58,18.60
2016,08,19,06,59,18.60
2016,08,19,07,00,18.60
2016,08,19,07,01,18.60
2016,08,19,07,02,18.60
2016,08,19,07,03,18.60
2016,08,19,07,04,18.80
2016,08,19,07,05,18.90
2016,08,19,07,06,19.00
2016,08,19,07,07,19.00
2016,08,19,07,08,19.10
2016,08,19,07,09,19.10
2016,08,19,07,10,19.10
2016,08,19,07,11,19.10
2016,08,19,07,12,19.10
2016,08,19,07,13,19.10
2016,08,19,07,14,19.10
2016,08,19,07,15,19.10
2016,08,19,07,16,19.10
2016,08,19,07,17,19.10
2016,08,19,07,18,19.10
2016,08,19,07,19,19.10
2016,08,19,07,20,19.10
2016,08,19,07,21,19.10
2016,08,19,07,22,19.10
2016,08,19,07,23,19.10
2016,08,19,07,24,19.10
2016,08,19,07,25,19.10
2016,08,19,07,26,19.10
2016,08,19,07,27,19.20
2016,08,19,07,28,19.30
2016,08,19,07,29,19.40
2016,08,19,07,30,19.50
2016,08,19,07,31,19.50
2016,08,19,07,32,19.60
2016,08,19,07,33,19.70
2016,08,19,07,34,19.80
2016,08,19,07,35,19.90
2016,08,19,07,36,20.00
2016,08,19,07,37,20.00
2016,08,19,07,38,20.20
2016,08,19,07,39,20.30
2016,08,19,07,40,20.40
2016,08,19,07,41,20.50
2016,08,19,07,42,20.60
2016,08,19,07,43,20.70
2016,08,19,07,44,20.90
2016,08,19,07,45,21.10
2016,08,19,07,46,21.40
2016,08,19,07,47,21.60
2016,08,19,07,48,21.90
2016,08,19,07,49,22.10
2016,08,19,07,50,22.30
2016,08,19,07,51,22.50
2016,08,19,07,52,22.70
2016,08,19,07,53,22.80
2016,08,19,07,54,22.90
2016,08,19,07,55,23.10
2016,08,19,07,56,23.10
2016,08,19,07,57,23.20
2016,08,19,07,58,23.30
2016,08,19,07,59,23.40
2016,08,19,08,00,23.40
2016,08,19,08,01,23.40
2016,08,19,08,02,23.50
2016,08,19,08,03,23.60
2016,08,19,08,04,23.60
2016,08,19,08,05,23.70
2016,08,19,08,06,23.80
2016,08,19,08,07,23.90
2016,08,19,08,08,24.00
2016,08,19,08,09,24.00
2016,08,19,08,10,24.10
2016,08,19,08,11,24.20
2016,08,19,08,12,24.30
2016,08,19,08,13,24.30
2016,08,19,08,14,24.40
2016,08,19,08,15,24.50
2016,08,19,08,16,24.70
2016,08,19,08,17,24.80
2016,08,19,08,18,24.90
2016,08,19,08,19,25.10
2016,08,19,08,20,25.10
2016,08,19,08,21,25.30
2016,08,19,08,22,25.30
2016,08,19,08,23,25.50
2016,08,19,08,24,25.50
2016,08,19,08,25,25.60
2016,08,19,08,26,25.70
2016,08,19,08,27,25.80
2016,08,19,08,28,25.80
2016,08,19,08,29,25.80
2016,08,19,08,30,25.90
2016,08,19,08,31,25.90
2016,08,19,08,32,25.90
2016,08,19,08,33,25.90
2016,08,19,08,34,26.00
2016,08,19,08,35,26.00
2016,08,19,08,36,26.00
2016,08,19,08,37,26.00
2016,08,19,08,38,26.10
2016,08,19,08,39,26.10
2016,08,19,08,40,26.10
2016,08,19,08,41,26.10
2016,08,19,08,42,26.10
2016,08,19,08,43,26.10
2016,08,19,08,44,26.20
2016,08,19,08,45,26.20
2016,08,19,08,46,26.20
2016,08,19,08,47,26.20
2016,08,19,08,48,26.20
2016,08,19,08,49,26.20
2016,08,19,08,50,26.20
2016,08,19,08,51,26.20
2016,08,19,08,52,26.20
2016,08,19,08,53,26.20
2016,08,19,08,54,26.20
2016,08,19,08,55,26.20
2016,08,19,08,56,26.30
2016,08,19,08,57,26.30
2016,08,19,08,58,26.30
2016,08,19,08,59,26.40
2016,08,19,09,00,26.40
2016,08,19,09,01,26.40
2016,08,19,09,02,26.40
2016,08,19,09,03,26.50
2016,08,19,09,04,26.50
2016,08,19,09,05,26.60
2016,08,19,09,06,26.60
2016,08,19,09,07,26.60
2016,08,19,09,08,26.70
2016,08,19,09,09,26.70
2016,08,19,09,10,26.70
2016,08,19,09,11,26.70
2016,08,19,09,12,26.60
2016,08,19,09,13,26.60
2016,08,19,09,14,26.60
2016,08,19,09,15,26.60
2016,08,19,09,16,26.70
2016,08,19,09,17,26.70
2016,08,19,09,18,26.80
2016,08,19,09,19,26.80
2016,08,19,09,20,26.80
2016,08,19,09,21,26.80
2016,08,19,09,22,26.80
2016,08,19,09,23,26.80
2016,08,19,09,24,26.80
2016,08,19,09,25,26.80
2016,08,19,09,26,26.90
2016,08,19,09,27,26.90
2016,08,19,09,28,26.90
2016,08,19,09,29,26.90
2016,08,19,09,30,27.00
2016,08,19,09,31,27.00
2016,08,19,09,32,26.90
2016,08,19,09,33,26.90
2016,08,19,09,34,26.90
2016,08,19,09,35,26.80
2016,08,19,09,36,26.80
2016,08,19,09,37,26.80
2016,08,19,09,38,26.80
2016,08,19,09,39,26.80
2016,08,19,09,40,26.80
2016,08,19,09,41,26.80
2016,08,19,09,42,26.80
2016,08,19,09,43,26.80
2016,08,19,09,44,26.80
2016,08,19,09,45,26.80
2016,08,19,09,46,26.80
2016,08,19,09,47,26.80
2016,08,19,09,48,26.80
2016,08,19,09,49,26.80
2016,08,19,09,50,26.80
2016,08,19,09,51,26.90
2016,08,19,09,52,26.90
2016,08,19,09,53,26.90
2016,08,19,09,54,27.00
2016,08,19,09,55,27.00
2016,08,19,09,56,27.10
2016,08,19,09,57,27.10
2016,08,19,09,58,27.10
2016,08,19,09,59,27.10
2016,08,19,10,00,27.10
2016,08,19,10,01,27.10
2016,08,19,10,02,27.10
2016,08,19,10,03,27.10
2016,08,19,10,04,27.10
2016,08,19,10,05,27.10
2016,08,19,10,06,27.10
2016,08,19,10,07,27.10
2016,08,19,10,08,27.10
2016,08,19,10,09,27.10
2016,08,19,10,10,27.20
2016,08,19,10,11,27.20
2016,08,19,10,12,27.20
2016,08,19,10,13,27.20
2016,08,19,10,14,27.20
2016,08,19,10,15,27.20
2016,08,19,10,16,27.10
2016,08,19,10,17,27.10
2016,08,19,10,18,27.10
2016,08,19,10,19,27.10
2016,08,19,10,20,27.10
2016,08,19,10,21,27.10
2016,08,19,10,22,27.10
2016,08,19,10,23,27.10
2016,08,19,10,24,27.10
2016,08,19,10,25,27.10
2016,08,19,10,26,27.10
2016,08,19,10,27,27.10
2016,08,19,10,28,27.10
2016,08,19,10,29,27.10
2016,08,19,10,30,27.10
2016,08,19,10,31,27.10
2016,08,19,10,32,27.10
2016,08,19,10,33,27.10
2016,08,19,10,34,27.10
2016,08,19,10,35,27.10
2016,08,19,10,36,27.10
2016,08,19,10,37,27.20
2016,08,19,10,38,27.20
2016,08,19,10,39,27.20
2016,08,19,10,40,27.20
2016,08,19,10,41,27.20
2016,08,19,10,42,27.20
2016,08,19,10,43,27.30
2016,08,19,10,44,27.30
2016,08,19,10,45,27.40
2016,08,19,10,46,27.40
2016,08,19,10,47,27.50
2016,08,19,10,48,27.60
2016,08,19,10,49,27.60
2016,08,19,10,50,27.60
2016,08,19,10,51,27.60
2016,08,19,10,52,27.70
2016,08,19,10,53,27.70
2016,08,19,10,54,27.70
2016,08,19,10,55,27.80
2016,08,19,10,56,27.80
2016,08,19,10,57,27.80
2016,08,19,10,58,27.80
2016,08,19,10,59,27.90
2016,08,19,11,00,27.90
2016,08,19,11,01,28.00
2016,08,19,11,02,28.00
2016,08,19,11,03,28.10
2016,08,19,11,04,28.10
2016,08,19,11,05,28.20
2016,08,19,11,06,28.30
2016,08,19,11,07,28.30
2016,08,19,11,08,28.30
2016,08,19,11,09,28.30
2016,08,19,11,10,28.30
2016,08,19,11,11,28.30
2016,08,19,11,12,28.30
2016,08,19,11,13,28.40
2016,08,19,11,14,28.50
2016,08,19,11,15,28.60
2016,08,19,11,16,28.70
2016,08,19,11,17,28.80
2016,08,19,11,18,28.80
2016,08,19,11,19,28.90
2016,08,19,11,20,29.00
2016,08,19,11,21,29.00
2016,08,19,11,22,28.90
2016,08,19,11,23,28.90
2016,08,19,11,24,28.90
2016,08,19,11,25,28.90
2016,08,19,11,26,28.90
2016,08,19,11,27,29.00
2016,08,19,11,28,29.00
2016,08,19,11,29,29.00
2016,08,19,11,30,29.10
2016,08,19,11,31,29.10
2016,08,19,11,32,29.10
2016,08,19,11,33,29.00
2016,08,19,11,34,29.00
2016,08,19,11,35,29.10
2016,08,19,11,36,29.10
2016,08,19,11,37,29.10
2016,08,19,11,38,29.10
2016,08,19,11,39,29.20
2016,08,19,11,40,29.20
2016,08,19,11,41,29.30
2016,08,19,11,42,29.40
2016,08,19,11,43,29.50
2016,08,19,11,44,29.50
2016,08,19,11,45,29.40
2016,08,19,11,46,29.50
2016,08,19,11,47,29.50
2016,08,19,11,48,29.60
2016,08,19,11,49,29.60
2016,08,19,11,50,29.70
2016,08,19,11,51,29.70
2016,08,19,11,52,29.70
2016,08,19,11,53,29.80
2016,08,19,11,54,29.70
2016,08,19,11,55,29.70
2016,08,19,11,56,29.60
2016,08,19,11,57,29.60
2016,08,19,11,58,29.60
2016,08,19,11,59,29.60
2016,08,19,12,00,29.60
2016,08,19,12,01,29.60
2016,08,19,12,02,29.70
2016,08,19,12,03,29.80
2016,08,19,12,04,29.90
2016,08,19,12,05,29.90
2016,08,19,12,06,30.00
2016,08,19,12,07,29.90
2016,08,19,12,08,29.90
2016,08,19,12,09,29.80
2016,08,19,12,10,29.80
2016,08,19,12,11,29.80
2016,08,19,12,12,29.70
2016,08,19,12,13,29.70
2016,08,19,12,14,29.70
2016,08,19,12,15,29.60
2016,08,19,12,16,29.60
2016,08,19,12,17,29.60
2016,08,19,12,18,29.50
2016,08,19,12,19,29.40
2016,08,19,12,20,29.40
2016,08,19,12,21,29.30
2016,08,19,12,22,29.30
2016,08,19,12,23,29.30
2016,08,19,12,24,29.30
2016,08,19,12,25,29.30
2016,08,19,12,26,29.30
2016,08,19,12,27,29.30
2016,08,19,12,28,29.40
2016,08,19,12,29,29.40
2016,08,19,12,30,29.50
2016,08,19,12,31,29.60
2016,08,19,12,32,29.60
2016,08,19,12,33,29.50
2016,08,19,12,34,29.50
2016,08,19,12,35,29.50
2016,08,19,12,36,29.50
2016,08,19,12,37,29.50
2016,08,19,12,38,29.60
2016,08,19,12,39,29.60
2016,08,19,12,40,29.70
2016,08,19,12,41,29.70
2016,08,19,12,42,29.80
2016,08,19,12,43,29.80
2016,08,19,12,44,29.80
2016,08,19,12,45,29.80
2016,08,19,12,46,29.80
2016,08,19,12,47,29.80
2016,08,19,12,48,29.80
2016,08,19,12,49,29.80
2016,08,19,12,50,29.80
2016,08,19,12,51,29.90
2016,08,19,12,52,29.90
2016,08,19,12,53,29.80
2016,08,19,12,54,29.80
2016,08,19,12,55,29.80
2016,08,19,12,56,29.80
2016,08,19,12,57,29.80
2016,08,19,12,58,29.70
2016,08,19,12,59,29.70
2016,08,19,13,00,29.70
2016,08,19,13,01,29.60
2016,08,19,13,02,29.60
2016,08,19,13,03,29.60
2016,08,19,13,04,29.60
2016,08,19,13,05,29.70
2016,08,19,13,06,29.90
2016,08,19,13,07,30.00
2016,08,19,13,08,30.10
2016,08,19,13,09,30.20
2016,08,19,13,10,30.10
2016,08,19,13,11,30.20
2016,08,19,13,12,30.20
2016,08,19,13,13,30.20
2016,08,19,13,14,30.20
2016,08,19,13,15,30.20
2016,08,19,13,16,30.30
2016,08,19,13,17,30.30
2016,08,19,13,18,30.40
2016,08,19,13,19,30.40
2016,08,19,13,20,30.40
2016,08,19,13,21,30.40
2016,08,19,13,22,30.50
2016,08,19,13,23,30.60
2016,08,19,13,24,30.60
2016,08,19,13,25,30.60
2016,08,19,13,26,30.60
2016,08,19,13,27,30.60
2016,08,19,13,28,30.70
2016,08,19,13,29,30.60
2016,08,19,13,30,30.40
2016,08,19,13,31,30.30
2016,08,19,13,32,30.30
2016,08,19,13,33,30.20
2016,08,19,13,34,30.20
2016,08,19,13,35,30.20
2016,08,19,13,36,30.10
2016,08,19,13,37,30.10
2016,08,19,13,38,30.10
2016,08,19,13,39,30.10
2016,08,19,13,40,30.10
2016,08,19,13,41,30.20
2016,08,19,13,42,30.20
2016,08,19,13,43,30.20
2016,08,19,13,44,30.20
2016,08,19,13,45,30.30
2016,08,19,13,46,30.30
2016,08,19,13,47,30.30
2016,08,19,13,48,30.40
2016,08,19,13,49,30.50
2016,08,19,13,50,30.60
2016,08,19,13,51,30.70
2016,08,19,13,52,30.80
2016,08,19,13,53,30.90
2016,08,19,13,54,30.90
2016,08,19,13,55,31.00
2016,08,19,13,56,30.90
2016,08,19,13,57,31.00
2016,08,19,13,58,31.00
2016,08,19,13,59,31.00
2016,08,19,14,00,31.10
2016,08,19,14,01,31.10
2016,08,19,14,02,31.10
2016,08,19,14,03,31.10
2016,08,19,14,04,31.10
2016,08,19,14,05,31.10
2016,08,19,14,06,31.10
2016,08,19,14,07,31.20
2016,08,19,14,08,31.20
2016,08,19,14,09,31.30
2016,08,19,14,10,31.50
2016,08,19,14,11,31.50
2016,08,19,14,12,31.50
2016,08,19,14,13,31.60
2016,08,19,14,14,31.60
2016,08,19,14,15,31.60
2016,08,19,14,16,31.60
2016,08,19,14,17,31.60
2016,08,19,14,18,31.60
2016,08,19,14,19,31.60
2016,08,19,14,20,31.60
2016,08,19,14,21,31.50
2016,08,19,14,22,31.50
2016,08,19,14,23,31.40
2016,08,19,14,24,31.30
2016,08,19,14,25,31.30
2016,08,19,14,26,31.30
2016,08,19,14,27,31.40
2016,08,19,14,28,31.50
2016,08,19,14,29,31.60
2016,08,19,14,30,31.70
2016,08,19,14,31,31.80
2016,08,19,14,32,31.80
2016,08,19,14,33,31.80
2016,08,19,14,34,31.80
2016,08,19,14,35,31.80
2016,08,19,14,36,31.70
2016,08,19,14,37,31.70
2016,08,19,14,38,31.70
2016,08,19,14,39,31.80
2016,08,19,14,40,31.80
2016,08,19,14,41,31.90
2016,08,19,14,42,31.90
2016,08,19,14,43,31.90
2016,08,19,14,44,31.80
2016,08,19,14,45,31.80
2016,08,19,14,46,31.80
2016,08,19,14,47,31.70
2016,08,19,14,48,31.60
2016,08,19,14,49,31.60
2016,08,19,14,50,31.60
2016,08,19,14,51,31.60
2016,08,19,14,52,31.60
2016,08,19,14,53,31.60
2016,08,19,14,54,31.60
2016,08,19,14,55,31.60
2016,08,19,14,56,31.70
2016,08,19,14,57,31.80
2016,08,19,14,58,31.80
2016,08,19,14,59,31.90
2016,08,19,15,00,32.00
2016,08,19,15,01,32.10
2016,08,19,15,02,32.20
2016,08,19,15,03,32.20
2016,08,19,15,04,32.20
2016,08,19,15,05,32.20
2016,08,19,15,06,32.10
2016,08,19,15,07,32.10
2016,08,19,15,08,32.10
2016,08,19,15,09,32.10
2016,08,19,15,10,32.10
2016,08,19,15,11,32.00
2016,08,19,15,12,31.90
2016,08,19,15,13,31.80
2016,08,19,15,14,31.80
2016,08,19,15,15,31.80
2016,08,19,15,16,31.80
2016,08,19,15,17,31.80
2016,08,19,15,18,31.90
2016,08,19,15,19,31.90
2016,08,19,15,20,31.90
2016,08,19,15,21,31.90
2016,08,19,15,22,32.00
2016,08,19,15,23,32.10
2016,08,19,15,24,32.10
2016,08,19,15,25,32.10
2016,08,19,15,26,32.20
2016,08,19,15,27,32.10
2016,08,19,15,28,32.10
2016,08,19,15,29,32.00
2016,08,19,15,30,32.00
2016,08,19,15,31,31.90
2016,08,19,15,32,31.90
2016,08,19,15,33,32.00
2016,08,19,15,34,32.00
2016,08,19,15,35,31.90
2016,08,19,15,36,31.80
2016,08,19,15,37,31.70
2016,08,19,15,38,31.60
2016,08,19,15,39,31.60
2016,08,19,15,40,31.50
2016,08,19,15,41,31.50
2016,08,19,15,42,31.50
2016,08,19,15,43,31.50
2016,08,19,15,44,31.60
2016,08,19,15,45,31.60
2016,08,19,15,46,31.60
2016,08,19,15,47,31.60
2016,08,19,15,48,31.60
2016,08,19,15,49,31.60
2016,08,19,15,50,31.60
2016,08,19,15,51,31.60
2016,08,19,15,52,31.60
2016,08,19,15,53,31.60
2016,08,19,15,54,31.60
2016,08,19,15,55,31.60
2016,08,19,15,56,31.60
2016,08,19,15,57,31.60
2016,08,19,15,58,31.60
2016,08,19,15,59,31.50
2016,08,19,16,00,31.50
2016,08,19,16,01,31.50
2016,08,19,16,02,31.40
2016,08,19,16,03,31.40
2016,08,19,16,04,31.30
2016,08,19,16,05,31.30
2016,08,19,16,06,31.30
2016,08,19,16,07,31.30
2016,08,19,16,08,31.30
2016,08,19,16,09,31.30
2016,08,19,16,10,31.30
2016,08,19,16,11,31.30
2016,08,19,16,12,31.30
2016,08,19,16,13,31.30
2016,08,19,16,14,31.30
2016,08,19,16,15,31.30
2016,08,19,16,16,31.30
2016,08,19,16,17,31.40
2016,08,19,16,18,31.30
2016,08,19,16,19,31.30
2016,08,19,16,20,31.30
2016,08,19,16,21,31.40
2016,08,19,16,22,31.40
2016,08,19,16,23,31.40
2016,08,19,16,24,31.40
2016,08,19,16,25,31.30
2016,08,19,16,26,31.30
2016,08,19,16,27,31.30
2016,08,19,16,28,31.30
2016,08,19,16,29,31.40
2016,08,19,16,30,31.40
2016,08,19,16,31,31.50
2016,08,19,16,32,31.50
2016,08,19,16,33,31.60
2016,08,19,16,34,31.60
2016,08,19,16,35,31.60
2016,08,19,16,36,31.60
2016,08,19,16,37,31.60
2016,08,19,16,38,31.60
2016,08,19,16,39,31.60
2016,08,19,16,40,31.70
2016,08,19,16,41,31.70
2016,08,19,16,42,31.60
2016,08,19,16,43,31.60
2016,08,19,16,44,31.60
2016,08,19,16,45,31.60
2016,08,19,16,46,31.60
2016,08,19,16,47,31.60
2016,08,19,16,48,31.60
2016,08,19,16,49,31.60
2016,08,19,16,50,31.60
2016,08,19,16,51,31.60
2016,08,19,16,52,31.50
2016,08,19,16,53,31.50
2016,08,19,16,54,31.50
2016,08,19,16,55,31.60
2016,08,19,16,56,31.60
2016,08,19,16,57,31.60
2016,08,19,16,58,31.60
2016,08,19,16,59,31.60
2016,08,19,17,00,31.60
2016,08,19,17,01,31.60
2016,08,19,17,02,31.60
2016,08,19,17,03,31.60
2016,08,19,17,04,31.60
2016,08,19,17,05,31.60
2016,08,19,17,06,31.60
2016,08,19,17,07,31.50
2016,08,19,17,08,31.40
2016,08,19,17,09,31.40
2016,08,19,17,10,31.40
2016,08,19,17,11,31.40
2016,08,19,17,12,31.40
2016,08,19,17,13,31.40
2016,08,19,17,14,31.40
2016,08,19,17,15,31.40
2016,08,19,17,16,31.40
2016,08,19,17,17,31.40
2016,08,19,17,18,31.40
2016,08,19,17,19,31.40